Meteo Giornale » Osservazioni meteo Italia » Decimomannu

ore: 00:55 - Osservazioni Meteo Decimomannu
Lat. 39° 21' N Lon. 8° 58' E Alt. 29 metri s.l.m.

nuvoloso Europe/Rome

16 °C

Nuvoloso

Temp. 24 Ore

16 °C

23 °C

Nord

5.5 Km/h

Dew point 15 °C

Umidità 93 %

Visibilità  10 Km

Il sole sorge alle ore 06:28

Il sole tramonta alle ore 20:15

Data e Ora Cielo e Fenomeni T °C DP °C Um. % Pres. hPa Vis. km Vento km/h
Oggi h: 00:55 nuvoloso Nuvoloso 16 15 93 1009 10 N 5.5
Ieri h: 23:55 nuvoloso Nuvoloso 17 15 88 1009 10 N 5.5
Ieri h: 22:55 nuvoloso Nuvoloso 18 16 88 1009 10 SE 13
Ieri h: 21:55 nuvoloso Nuvoloso 17 16 93 1009 10 SE 11.1
Ieri h: 20:55 nuvoloso Nuvoloso 18 17 93 1008 10 SE 13
Ieri h: 19:55 nuvoloso Nuvoloso 20 17 82 1008 10 SE 14.8
Ieri h: 18:55 poco_nuvoloso Poco Nuvoloso 22 18 78 1008 10 SE 14.8
Ieri h: 17:55 poco_nuvoloso Poco Nuvoloso 23 17 68 1008 9 SE 16.7
Ieri h: 16:55 nuvoloso Nuvoloso 23 16 64 1008 9 S/SE 14.8
Ieri h: 15:55 nuvoloso Nuvoloso 22 17 73 1009 9 SE 20.3
Ieri h: 14:55 poco_nuvoloso Poco Nuvoloso 23 17 68 1009 8 SE 29.6
Ieri h: 13:55 poco_nuvoloso Poco Nuvoloso 23 18 73 1009 8 S/SE 25.9
Ieri h: 12:55 nuvoloso Nuvoloso 23 17 68 1009 8 S/SE 18.5
Ieri h: 11:55 nuvoloso Nuvoloso 22 16 68 1009 8 S/SE 18.5
Ieri h: 09:55 nuvoloso Nuvoloso 20 16 77 1010 9 SE 16.7
Ieri h: 08:55 molto_nuvoloso Molto Nuvoloso 18 15 82 1010 9 SE 14.8
Ieri h: 07:55 molto_nuvoloso Molto Nuvoloso 17 15 88 1009 9 SE 16.7
Ieri h: 06:55 molto_nuvoloso Molto Nuvoloso 17 15 88 1009 9 SE 16.7
Ieri h: 05:55 molto_nuvoloso Molto Nuvoloso 17 15 88 1009 10 SE 20.3
Ieri h: 04:55 molto_nuvoloso Molto Nuvoloso 16 15 93 1009 10 E/SE 16.7
Ieri h: 03:55 molto_nuvoloso Molto Nuvoloso 16 15 93 1010 10 SE 16.7
Ieri h: 02:55 molto_nuvoloso Molto Nuvoloso 17 15 88 1011 10 SE 20.3
Ieri h: 01:55 molto_nuvoloso Molto Nuvoloso 17 15 88 1011 10 SE 24